Miscellaneous Local Product
Issued by NWS North Platte, NE

Home | Current Version | Previous Version | Graphics & Text | Print | Product List | Glossary On
Versions: 1 2 3 4 5 6 7 8 9 10 11 12 13 14 15 16 17 18 19 20 21 22 23 24 25 26 27 28 29 30 31 32 33 34 35 36 37 38 39 40 41 42 43 44 45 46 47 48 49 50
236
AXUS43 KLBF 030610
MISLBF


WESTERN AND NORTH CENTRAL NEBRASKA HOURLY WEATHER ROUNDUP
NATIONAL WEATHER SERVICE NORTH PLATTE NE
100 AM CDT TUE MAY 03 2016

NOTE: "FAIR" INDICATES FEW OR NO CLOUDS BELOW 12,000 FEET WITH NO
SIGNIFICANT WEATHER AND/OR OBSTRUCTIONS TO VISIBILITY.

NOTE: STATIONS NOT REPORTING VARIABLES SUCH AS SKY/WEATHER OR
PRESSURE ARE PROVIDED BY RAWS AND APRS NETWORKS AND ARE NOT UNDER
NATIONAL WEATHER SERVICE QUALITY CONTROL.

...OBSERVATIONS IN AND NEAR THE EASTERN PANHANDLE OF NEBRASKA...

CITY           SKY/WX    TMP DP  RH WIND       PRES   REMARKS
PINE RIDGE     CLEAR     38  36  92 CALM      30.05S
CHADRON        MOCLDY    45  41  86 W5        30.05S
ALLIANCE       PTCLDY    36  35  96 W7        30.04F WCI  30
SIDNEY         LGT RAIN  43  37  79 E7        30.08R
CRESCENT LAKE    N/A     42  39  90 W7          N/A
BIG SPRINGS      N/A     48  41  77 N16         N/A
$$

...OBSERVATIONS IN NORTHERN NEBRASKA AND FAR SOUTHERN SOUTH DAKOTA...

CITY           SKY/WX    TMP DP  RH WIND       PRES   REMARKS
WINNER         MOCLDY    47  41  80 CALM      30.05S
VALENTINE      MOCLDY    45  43  93 CALM      30.06S
THEDFORD       LGT RAIN  46  44  95 NE6       30.07S
AINSWORTH      CLEAR     45  45  97 NW5       30.04F
O`NEILL        CLOUDY    50  46  85 S5        30.05R
ORD            MOCLDY    44  40  85 CALM      30.03S
BROKEN BOW     CLOUDY    41  38  89 NW3       30.03S
BUTTE            N/A     48  43  82 W5          N/A
HALSEY           N/A     46  45  96 NW5         N/A
CHAMBERS         N/A     48  39  72 CALM        N/A
EWING            N/A     48  43  83 CALM        N/A
$$

...OBSERVATIONS IN SOUTHWEST NEBRASKA AND FAR NORTHEAST COLORADO...

CITY           SKY/WX    TMP DP  RH WIND       PRES   REMARKS
HOLYOKE        DRIZZLE   48  41  76 N23G37    30.10R
IMPERIAL       LGT RAIN  47  42  83 N15       30.09R
OGALLALA       CLOUDY    46  41  85 CALM      30.05R
NORTH PLATTE   RAIN      46  44  93 S5        30.06R FOG
MCCOOK         CLOUDY    48  39  71 W5        30.01F
LEXINGTON      CLOUDY    48  40  73 SE7       30.03F
PAXTON           N/A     50  43  77 CALM        N/A
STAPLETON        N/A     44  42  92 CALM        N/A
GOTHENBURG       N/A     49  39  68 CALM        N/A
CALLAWAY         N/A     45  40  82 S3          N/A
$$

...OBSERVATIONS IN CENTRAL LINCOLN COUNTY AREA...

CITY           SKY/WX    TMP DP  RH WIND       PRES   REMARKS
N.P. AIRPORT   RAIN      46  44  93 S5        30.06R FOG
N.P. DOWNTOWN    N/A     46  43  90 CALM        N/A
N.P. HILLCREST   N/A     46  43  90 SE7         N/A
$$

...SOME OBSERVATIONS FROM AROUND THE REGION...

CITY           SKY/WX    TMP DP  RH WIND       PRES   REMARKS
DENVER         CLOUDY    44  29  55 SW8       30.14R
LARAMIE        CLEAR     31  24  75 CALM      30.21S
CHEYENNE       CLEAR     43  27  53 N14       30.15S
SCOTTSBLUFF    CLOUDY    46  39  76 SW5       30.11R
RAPID CITY     CLEAR     43  36  76 N9        30.06R
BISMARCK       CLOUDY    45  42  89 CALM      30.02F
PIERRE         CLEAR     44  40  85 W6        30.03R
SIOUX FALLS    CLEAR     41  37  86 CALM      30.04S
OMAHA          PTCLDY    47  44  90 CALM      30.05S
GRAND ISLAND   CLOUDY    47  40  76 S6        30.05S
KANSAS CITY    CLEAR     48  44  86 W5        30.07S
WICHITA        PTCLDY    45  40  82 SW5       30.07F
OKLAHOMA CITY  CLEAR     47  41  80 CALM      30.11S
DALLAS         CLEAR     56  46  69 CALM      30.11S
AMARILLO       CLEAR     47  37  68 S10       30.14S
DODGE CITY     PTCLDY    46  38  73 SW8       30.08S
HAYS           CLOUDY    46  36  66 SE7       30.05S
GOODLAND       CLOUDY    46  37  71 NW7       30.05F
$$




USA.gov is the U.S. government's official web portal to all federal, state and local government web resources and services.